Back to catalog

FENGYUN 1C DEB

AliveSSO
NORAD 31350·DEBRIS·🇨🇳 China

Launched May 10, 1999 from Taiyuan Satellite Launch Center

Loading…

Next Passes (next 24 hours)

TLE

AgingSource: Space-Track

Epoch: Sep 4, 2026, 18:08 UTC

1 31350U 99025BRE 26247.75559176  .00000545  00000-0  20071-3 0  9990
2 31350  98.9728  75.1227 0066873  66.2096 294.6081 14.35529950740699

Track FENGYUN 1C DEB in real time with AllMySat

Download on the App Store